Date String (YYYY-MM-DD hh:mm:ss) UTC,Instrument flags,absolute air pressure of the measurement (hPa),sample flow rate (lpm),inlet stack bypass flow (lpm),air temperature of the measurement (°C),ambient temperature measured by the external sensor (°C),aerosol sample conditioner tube jacket temperature (°C),OPC LED temperature (°C),internal box temperature (°C),relative humidity of the measurement (%),span deviation,mass concentration of particles derived from Lorenz-Mie calculation of OPC scattering (μg/m³),mass concentration of particles derived from Lorenz-Mie calculation of OPC scattering (μg/m³),mass concentration of particles derived from Lorenz-Mie calculation of OPC scattering (μg/m³)
DateTimeUTC,F1_M11,P_M11,Q1_M11,Q2_M11,T1_M11,T2_M11,T3_M11,T4_M11,T5_M11,U1_M11,ZSPAN_M11,X0_M11,X2_M11,X1_M11
2024-04-20 05:00:00,SystemResetWarning,0837.0,4.99,000.00,019.3,018.8,000.0,027.9,021.1,023.0,0000.0,0008.36,0005.55,0005.05
2024-04-20 05:01:00,SystemResetWarning,0837.0,4.99,000.00,019.3,018.8,000.0,027.9,021.1,023.0,0000.0,0008.33,0005.53,0005.04
2024-04-20 05:02:00,SystemResetWarning,0837.0,5.00,000.00,019.3,018.8,000.0,027.9,021.1,023.0,0000.0,0008.31,0005.53,0005.04
2024-04-20 05:03:00,SystemResetWarning,0836.9,5.01,000.00,019.3,018.8,000.0,027.9,021.1,023.0,0000.0,0008.39,0005.50,0005.04
2024-04-20 05:04:00,SystemResetWarning,0837.0,5.00,000.00,019.3,018.8,000.0,027.9,021.1,023.0,0000.0,0008.38,0005.48,0005.05
2024-04-20 05:05:00,SystemResetWarning,0836.9,4.99,000.00,019.3,018.8,000.0,027.9,021.1,023.0,0000.0,0008.38,0005.49,0005.06
2024-04-20 05:06:00,SystemResetWarning,0837.0,4.99,000.00,019.3,018.8,000.0,027.8,021.1,022.9,0000.0,0008.43,0005.51,0005.09
2024-04-20 05:07:00,SystemResetWarning,0836.9,4.99,000.00,019.3,018.8,000.0,027.8,021.1,022.9,0000.0,0008.55,0005.59,0005.12
2024-04-20 05:08:00,SystemResetWarning,0837.0,5.00,000.00,019.3,018.8,000.0,027.9,021.1,023.0,0000.0,0008.64,0005.64,0005.15
2024-04-20 05:09:00,SystemResetWarning,0837.0,5.01,000.00,019.3,018.8,000.0,027.9,021.1,023.0,0000.0,0008.72,0005.70,0005.19
2024-04-20 05:10:00,SystemResetWarning,0837.0,5.01,000.00,019.3,018.8,000.0,027.8,021.1,023.0,0000.0,0008.78,0005.75,0005.22
2024-04-20 05:11:00,SystemResetWarning,0836.9,5.00,000.00,019.3,018.8,000.0,027.9,021.1,023.0,0000.0,0008.80,0005.80,0005.26
2024-04-20 05:12:00,SystemResetWarning,0837.0,4.99,000.00,019.3,018.8,000.0,027.8,021.1,023.0,0000.0,0008.86,0005.84,0005.31
2024-04-20 05:13:00,SystemResetWarning,0837.0,4.99,000.00,019.3,018.8,000.0,027.8,021.1,023.0,0000.0,0008.82,0005.85,0005.34
2024-04-20 05:14:00,SystemResetWarning,0837.0,5.00,000.00,019.3,018.8,000.0,027.8,021.1,023.0,0000.0,0008.80,0005.88,0005.37
2024-04-20 05:15:00,SystemResetWarning,0836.9,5.01,000.00,019.3,018.8,000.0,027.8,021.1,023.0,0000.0,0008.63,0005.91,0005.40
2024-04-20 05:16:00,SystemResetWarning,0836.9,5.00,000.00,019.3,018.8,000.0,027.8,021.1,023.0,0000.0,0008.57,0005.92,0005.43
2024-04-20 05:17:00,SystemResetWarning,0836.9,5.01,000.00,019.3,018.8,000.0,027.8,021.1,023.0,0000.0,0008.61,0005.94,0005.44
2024-04-20 05:18:00,SystemResetWarning,0836.9,4.99,000.00,019.3,018.8,000.0,027.8,021.1,023.0,0000.0,0008.59,0005.93,0005.45
2024-04-20 05:19:00,SystemResetWarning,0837.0,5.00,000.00,019.3,018.8,000.0,027.8,021.1,023.0,0000.0,0008.56,0005.93,0005.47
2024-04-20 05:20:00,SystemResetWarning,0837.0,5.00,000.00,019.3,018.8,000.0,027.8,021.1,023.0,0000.0,0008.55,0005.93,0005.48
2024-04-20 05:21:00,SystemResetWarning,0837.0,5.00,000.00,019.3,018.8,000.0,027.8,021.1,023.0,0000.0,0008.52,0005.91,0005.49
2024-04-20 05:22:00,SystemResetWarning,0837.0,5.00,000.00,019.3,018.8,000.0,027.8,021.1,023.0,0000.0,0008.57,0005.93,0005.50
2024-04-20 05:23:00,SystemResetWarning,0836.9,5.00,000.00,019.3,018.8,000.0,027.8,021.1,023.0,0000.0,0008.56,0005.93,0005.50
2024-04-20 05:24:00,SystemResetWarning,0836.8,4.99,000.00,019.3,018.8,000.0,027.8,021.1,023.0,0000.0,0008.63,0005.96,0005.51
2024-04-20 05:25:00,SystemResetWarning,0836.8,4.99,000.00,019.3,018.8,000.0,027.8,021.1,023.0,0000.0,0008.66,0006.01,0005.53
2024-04-20 05:26:00,SystemResetWarning,0836.8,5.00,000.00,019.3,018.8,000.0,027.8,021.1,023.0,0000.0,0008.76,0006.03,0005.54
2024-04-20 05:27:00,SystemResetWarning,0836.8,5.00,000.00,019.3,018.8,000.0,027.8,021.1,023.0,0000.0,0009.14,0006.08,0005.55
2024-04-20 05:28:00,SystemResetWarning,0836.9,5.01,000.00,019.3,018.7,000.0,027.8,021.1,023.0,0000.0,0009.08,0006.07,0005.56
2024-04-20 05:29:00,SystemResetWarning,0836.8,5.00,000.00,019.3,018.8,000.0,027.8,021.1,023.1,0000.0,0009.09,0006.09,0005.57
2024-04-20 05:30:00,SystemResetWarning,0836.8,4.99,000.00,019.3,018.8,000.0,027.8,021.1,023.1,0000.0,0009.08,0006.09,0005.58
2024-04-20 05:31:00,SystemResetWarning,0836.8,5.00,000.00,019.3,018.8,000.0,027.8,021.1,023.1,0000.0,0009.05,0006.09,0005.58
2024-04-20 05:32:00,SystemResetWarning,0836.8,5.01,000.00,019.3,018.8,000.0,027.8,021.1,023.1,0000.0,0009.03,0006.09,0005.59
2024-04-20 05:33:00,SystemResetWarning,0836.8,4.98,000.00,019.3,018.7,000.0,027.8,021.1,023.1,0000.0,0008.97,0006.08,0005.60
2024-04-20 05:34:00,SystemResetWarning,0836.8,5.00,000.00,019.3,018.7,000.0,027.8,021.1,023.1,0000.0,0008.97,0006.10,0005.63
2024-04-20 05:35:00,SystemResetWarning,0836.8,5.01,000.00,019.3,018.7,000.0,027.8,021.1,023.0,0000.0,0008.96,0006.12,0005.66
2024-04-20 05:36:00,SystemResetWarning,0836.8,5.01,000.00,019.3,018.7,000.0,027.8,021.1,022.9,0000.0,0008.98,0006.14,0005.69
2024-04-20 05:37:00,SystemResetWarning,0836.9,4.99,000.00,019.3,018.7,000.0,027.8,021.1,022.9,0000.0,0009.02,0006.18,0005.74
2024-04-20 05:38:00,SystemResetWarning,0836.9,4.99,000.00,019.3,018.7,000.0,027.8,021.1,022.8,0000.0,0008.87,0006.20,0005.76
2024-04-20 05:39:00,SystemResetWarning,0836.9,4.99,000.00,019.3,018.7,000.0,027.8,021.0,022.8,0000.0,0008.99,0006.26,0005.79
2024-04-20 05:40:00,SystemResetWarning,0836.9,5.00,000.00,019.3,018.7,000.0,027.8,021.0,022.8,0000.0,0009.03,0006.30,0005.83
2024-04-20 05:41:00,SystemResetWarning,0836.9,5.00,000.00,019.3,018.6,000.0,027.8,021.0,022.7,0000.0,0009.12,0006.33,0005.86
2024-04-20 05:42:00,SystemResetWarning,0836.8,5.00,000.00,019.3,018.7,000.0,027.8,021.0,022.7,0000.0,0009.11,0006.33,0005.87
2024-04-20 05:43:00,SystemResetWarning,0836.8,5.01,000.00,019.3,018.7,000.0,027.8,021.0,022.7,0000.0,0009.14,0006.36,0005.90
2024-04-20 05:44:00,SystemResetWarning,0836.8,5.00,000.00,019.3,018.7,000.0,027.8,021.0,022.6,0000.0,0009.31,0006.41,0005.91
2024-04-20 05:45:00,SystemResetWarning,0836.8,5.00,000.00,019.3,018.7,000.0,027.8,021.0,022.6,0000.0,0009.39,0006.41,0005.89
2024-04-20 05:46:00,SystemResetWarning,0836.8,5.00,000.00,019.3,018.7,000.0,027.8,021.0,022.6,0000.0,0009.40,0006.39,0005.86
2024-04-20 05:47:00,SystemResetWarning,0836.8,5.00,000.00,019.3,018.7,000.0,027.8,021.0,022.6,0000.0,0009.50,0006.42,0005.84
2024-04-20 05:48:00,SystemResetWarning,0836.8,5.00,000.00,019.3,018.7,000.0,027.8,021.0,022.6,0000.0,0009.48,0006.42,0005.82
2024-04-20 05:49:00,SystemResetWarning,0836.9,5.00,000.00,019.3,018.7,000.0,027.8,021.0,022.6,0000.0,0009.41,0006.44,0005.82
2024-04-20 05:50:00,SystemResetWarning,0836.9,5.01,000.00,019.3,018.7,000.0,027.8,021.0,022.6,0000.0,0009.39,0006.43,0005.82
2024-04-20 05:51:00,SystemResetWarning,0837.0,4.99,000.00,019.3,018.7,000.0,027.8,021.0,023.3,0000.0,0009.47,0006.46,0005.83
2024-04-20 05:52:00,SystemResetWarning,0837.0,4.99,000.00,019.3,018.7,000.0,027.8,021.0,023.9,0000.0,0009.46,0006.48,0005.84
2024-04-20 05:53:00,SystemResetWarning,0837.0,5.01,000.00,019.3,018.7,000.0,027.8,021.0,023.1,0000.0,0009.56,0006.52,0005.87
2024-04-20 05:54:00,SystemResetWarning,0837.0,5.02,000.00,019.2,018.7,000.0,027.8,021.0,022.9,0000.0,0009.62,0006.54,0005.87
2024-04-20 05:55:00,SystemResetWarning,0836.9,4.99,000.00,019.2,018.7,000.0,027.8,021.0,022.8,0001.0,0009.58,0006.55,0005.90
2024-04-20 05:56:00,SystemResetWarning,0837.0,4.99,000.00,019.3,018.7,000.0,027.8,021.0,022.8,0002.1,0009.59,0006.57,0005.93
2024-04-20 05:57:00,SystemResetWarning,0836.9,5.01,000.00,019.2,018.7,000.0,027.8,021.0,022.8,0002.7,0009.76,0006.65,0005.95
2024-04-20 05:58:00,SystemResetWarning,0836.9,5.01,000.00,019.2,018.7,000.0,027.8,021.0,022.8,0002.6,0009.75,0006.67,0006.00
2024-04-20 05:59:00,SystemResetWarning,0836.8,5.01,000.00,019.2,018.7,000.0,027.8,021.0,022.8,0002.8,0009.79,0006.69,0006.04
